Starlink 30088

operational
NORAD ID: 57462 Int'l Des: 2023-107 Owner: SPXS Country: US Constellation: starlink
LEOCIRCULAR

Starlink 30088について

説明を読み込み中...

リアルタイム位置

3D地球を読み込み中...

次回通過

高度履歴

Altitude vs Time

uPlot chart will show altitude changes over time

軌道要素

1 57462U 23107F 25351.26593828 .00001129 00000-0 98660-4 0 9992
2 57462 43.0032 66.9228 0001527 271.9135 88.1532 15.02539433132710
Epoch: Dec 17, 2025 • Age: 20 hours

現在のステータス

高度 560.4 km
速度 7.58 km/s
衛星直下点 -9.48°S, 129.89°E
打ち上げ日 Jul 28, 2023
運用期間 2.3 years
タイプ internet

技術仕様

分類 Payload
質量 730.00 kg
乾燥質量 700.00 kg
総質量 730.00 kg
長さ 0.30 m
直径 4.10 m
スパン 29.00 m
形状 Box + pan
製造者 SPXS
バスタイプ Starlink V2M
フェーズステータス In Orbit
所有者/国 SPXS/US

大規模コンステレーション

Loading constellations...